Time,TemperatureF,DewpointF,PressureIn,WindDirection,WindDirectionDegrees,WindSpeedMPH,WindSpeedGustMPH,Humidity,HourlyPrecipIn,Conditions,Clouds,dailyrainin,SoftwareType,DateUTC
2013-09-13 00:01:00,65.7,65.1,29.67,SSW,195,2.0,2.0,98,0.00,,,0.00,vanprod-2.5,2013-09-13 04:01:00,
2013-09-13 00:03:00,65.8,65.2,29.67,South,174,2.0,2.0,98,0.01,,,0.01,vanprod-2.5,2013-09-13 04:03:00,
2013-09-13 00:08:00,65.6,64.7,29.67,WSW,242,0.0,0.0,97,0.02,,,0.02,vanprod-2.5,2013-09-13 04:08:00,
2013-09-13 00:13:00,65.7,64.8,29.66,West,261,0.0,0.0,97,0.05,,,0.05,vanprod-2.5,2013-09-13 04:13:00,
2013-09-13 00:18:00,65.7,64.8,29.66,West,275,2.0,4.0,97,0.07,,,0.07,vanprod-2.5,2013-09-13 04:18:00,
2013-09-13 00:23:00,65.7,64.8,29.66,WNW,286,2.0,4.0,97,0.09,,,0.09,vanprod-2.5,2013-09-13 04:23:00,
2013-09-13 00:28:00,65.8,64.9,29.66,WSW,257,4.0,7.0,97,0.13,,,0.13,vanprod-2.5,2013-09-13 04:28:00,
2013-09-13 00:33:00,65.8,64.9,29.67,West,264,3.0,5.0,97,0.16,,,0.16,vanprod-2.5,2013-09-13 04:33:00,
2013-09-13 00:38:00,65.8,64.9,29.67,West,267,3.0,7.0,97,0.19,,,0.19,vanprod-2.5,2013-09-13 04:38:00,
2013-09-13 00:43:00,65.9,65.0,29.66,WNW,283,1.0,3.0,97,0.22,,,0.22,vanprod-2.5,2013-09-13 04:43:00,
2013-09-13 00:48:00,65.9,65.0,29.66,WSW,258,2.0,3.0,97,0.26,,,0.26,vanprod-2.5,2013-09-13 04:48:00,
2013-09-13 00:53:00,65.9,65.3,29.65,WNW,285,2.0,2.0,98,0.29,,,0.29,vanprod-2.5,2013-09-13 04:53:00,
2013-09-13 00:58:00,65.9,65.0,29.65,WSW,245,2.0,4.0,97,0.30,,,0.30,vanprod-2.5,2013-09-13 04:58:00,
2013-09-13 01:03:00,65.8,64.9,29.66,WSW,253,3.0,5.0,97,0.30,,,0.31,vanprod-2.5,2013-09-13 05:03:00,
2013-09-13 01:08:00,65.7,64.8,29.65,SSW,195,1.0,2.0,97,0.30,,,0.32,vanprod-2.5,2013-09-13 05:08:00,
2013-09-13 01:13:00,65.6,64.7,29.64,West,281,1.0,1.0,97,0.27,,,0.32,vanprod-2.5,2013-09-13 05:13:00,
2013-09-13 01:18:00,65.6,64.7,29.64,West,263,0.0,1.0,97,0.26,,,0.33,vanprod-2.5,2013-09-13 05:18:00,
2013-09-13 01:23:00,65.6,64.7,29.62,West,263,0.0,0.0,97,0.25,,,0.34,vanprod-2.5,2013-09-13 05:23:00,
2013-09-13 01:28:00,65.6,64.7,29.61,West,264,0.0,0.0,97,0.22,,,0.34,vanprod-2.5,2013-09-13 05:28:00,
2013-09-13 01:33:00,65.5,64.6,29.60,West,263,0.0,0.0,97,0.18,,,0.34,vanprod-2.5,2013-09-13 05:33:00,
2013-09-13 01:38:00,65.5,64.6,29.59,West,264,1.0,1.0,97,0.16,,,0.35,vanprod-2.5,2013-09-13 05:38:00,
2013-09-13 01:43:00,65.4,64.5,29.59,West,264,0.0,0.0,97,0.13,,,0.35,vanprod-2.5,2013-09-13 05:43:00,
2013-09-13 01:48:00,65.3,64.4,29.59,West,266,0.0,0.0,97,0.09,,,0.35,vanprod-2.5,2013-09-13 05:48:00,
2013-09-13 01:53:00,65.3,64.4,29.59,West,274,0.0,0.0,97,0.06,,,0.35,vanprod-2.5,2013-09-13 05:53:00,
2013-09-13 01:58:00,65.3,64.4,29.59,West,274,0.0,0.0,97,0.05,,,0.35,vanprod-2.5,2013-09-13 05:58:00,
2013-09-13 02:03:00,65.2,64.3,29.59,West,274,1.0,1.0,97,0.04,,,0.35,vanprod-2.5,2013-09-13 06:03:00,
2013-09-13 02:08:00,65.0,64.1,29.59,East,84,1.0,1.0,97,0.03,,,0.35,vanprod-2.5,2013-09-13 06:08:00,
2013-09-13 02:13:00,64.7,63.8,29.59,East,84,0.0,0.0,97,0.03,,,0.35,vanprod-2.5,2013-09-13 06:13:00,
2013-09-13 02:18:00,64.7,63.8,29.59,East,84,0.0,0.0,97,0.02,,,0.35,vanprod-2.5,2013-09-13 06:18:00,
2013-09-13 02:23:00,64.6,63.7,29.59,NE,37,1.0,1.0,97,0.01,,,0.35,vanprod-2.5,2013-09-13 06:23:00,
2013-09-13 02:28:00,64.6,63.7,29.60,WNW,285,0.0,0.0,97,0.01,,,0.35,vanprod-2.5,2013-09-13 06:28:00,
2013-09-13 02:33:00,64.7,63.8,29.61,West,274,2.0,3.0,97,0.01,,,0.35,vanprod-2.5,2013-09-13 06:33:00,
2013-09-13 02:38:00,64.7,63.8,29.61,West,265,1.0,2.0,97,0.00,,,0.35,vanprod-2.5,2013-09-13 06:38:00,
2013-09-13 02:43:00,64.9,64.3,29.61,West,270,2.0,2.0,98,0.00,,,0.35,vanprod-2.5,2013-09-13 06:43:00,
2013-09-13 02:48:00,65.0,64.4,29.62,West,269,0.0,0.0,98,0.00,,,0.35,vanprod-2.5,2013-09-13 06:48:00,
2013-09-13 02:53:00,64.7,63.8,29.62,West,261,1.0,3.0,97,0.00,,,0.35,vanprod-2.5,2013-09-13 06:53:00,
2013-09-13 02:58:00,64.6,63.7,29.62,West,262,1.0,2.0,97,0.00,,,0.35,vanprod-2.5,2013-09-13 06:58:00,
2013-09-13 03:03:00,64.6,63.7,29.62,SSE,156,1.0,2.0,97,0.00,,,0.35,vanprod-2.5,2013-09-13 07:03:00,
2013-09-13 03:08:00,64.7,63.8,29.62,SSE,158,2.0,2.0,97,0.00,,,0.35,vanprod-2.5,2013-09-13 07:08:00,
2013-09-13 03:13:00,64.6,63.7,29.62,East,101,0.0,0.0,97,0.00,,,0.35,vanprod-2.5,2013-09-13 07:13:00,
2013-09-13 03:18:00,64.4,63.5,29.63,South,170,2.0,2.0,97,0.00,,,0.35,vanprod-2.5,2013-09-13 07:18:00,
2013-09-13 03:23:00,64.1,63.2,29.62,SE,137,0.0,1.0,97,0.00,,,0.35,vanprod-2.5,2013-09-13 07:23:00,
2013-09-13 03:28:00,64.1,63.2,29.62,ESE,105,0.0,0.0,97,0.00,,,0.35,vanprod-2.5,2013-09-13 07:28:00,
2013-09-13 03:33:00,64.0,63.1,29.62,SE,146,0.0,0.0,97,0.00,,,0.35,vanprod-2.5,2013-09-13 07:33:00,
2013-09-13 03:38:00,64.0,63.1,29.62,SE,128,0.0,0.0,97,0.00,,,0.35,vanprod-2.5,2013-09-13 07:38:00,
2013-09-13 03:43:00,63.9,63.0,29.62,East,95,0.0,0.0,97,0.00,,,0.35,vanprod-2.5,2013-09-13 07:43:00,
2013-09-13 03:48:00,63.8,62.9,29.62,ESE,108,0.0,0.0,97,0.00,,,0.35,vanprod-2.5,2013-09-13 07:48:00,
2013-09-13 03:53:00,63.7,62.8,29.62,South,185,0.0,1.0,97,0.00,,,0.35,vanprod-2.5,2013-09-13 07:53:00,
2013-09-13 03:58:00,63.7,62.8,29.61,South,189,1.0,2.0,97,0.00,,,0.35,vanprod-2.5,2013-09-13 07:58:00,
2013-09-13 04:03:00,63.7,62.8,29.61,SE,141,0.0,1.0,97,0.00,,,0.35,vanprod-2.5,2013-09-13 08:03:00,
2013-09-13 04:08:00,63.7,62.8,29.61,SSW,195,0.0,1.0,97,0.00,,,0.35,vanprod-2.5,2013-09-13 08:08:00,
2013-09-13 04:13:00,63.5,62.6,29.61,SE,141,1.0,1.0,97,0.00,,,0.35,vanprod-2.5,2013-09-13 08:13:00,
2013-09-13 04:18:00,63.4,62.5,29.61,SSW,208,0.0,1.0,97,0.00,,,0.35,vanprod-2.5,2013-09-13 08:18:00,
2013-09-13 04:23:00,63.4,62.5,29.61,SSE,168,1.0,1.0,97,0.00,,,0.35,vanprod-2.5,2013-09-13 08:23:00,
2013-09-13 04:28:00,63.4,62.5,29.61,ESE,105,0.0,1.0,97,0.00,,,0.35,vanprod-2.5,2013-09-13 08:28:00,
2013-09-13 04:33:00,63.3,62.4,29.61,ESE,107,0.0,0.0,97,0.00,,,0.35,vanprod-2.5,2013-09-13 08:33:00,
2013-09-13 04:38:00,63.4,62.5,29.61,ESE,107,0.0,0.0,97,0.00,,,0.35,vanprod-2.5,2013-09-13 08:38:00,
2013-09-13 04:43:00,63.4,62.5,29.61,ESE,107,0.0,0.0,97,0.00,,,0.35,vanprod-2.5,2013-09-13 08:43:00,
2013-09-13 04:48:00,63.3,62.4,29.61,ESE,107,0.0,0.0,97,0.00,,,0.35,vanprod-2.5,2013-09-13 08:48:00,
2013-09-13 04:53:00,63.3,62.7,29.61,ESE,107,0.0,0.0,98,0.00,,,0.35,vanprod-2.5,2013-09-13 08:53:00,
2013-09-13 04:58:00,63.3,62.7,29.61,ESE,107,0.0,0.0,98,0.00,,,0.35,vanprod-2.5,2013-09-13 08:58:00,
2013-09-13 05:03:00,63.4,62.8,29.61,ESE,107,0.0,0.0,98,0.00,,,0.35,vanprod-2.5,2013-09-13 09:03:00,
2013-09-13 05:08:00,63.3,62.7,29.61,ESE,107,0.0,0.0,98,0.00,,,0.35,vanprod-2.5,2013-09-13 09:08:00,
2013-09-13 05:13:00,63.3,62.7,29.61,ESE,107,0.0,0.0,98,0.00,,,0.35,vanprod-2.5,2013-09-13 09:13:00,
2013-09-13 05:18:00,63.5,62.9,29.61,ESE,107,0.0,0.0,98,0.00,,,0.35,vanprod-2.5,2013-09-13 09:18:00,
2013-09-13 05:23:00,63.6,63.0,29.61,ESE,107,0.0,0.0,98,0.00,,,0.35,vanprod-2.5,2013-09-13 09:23:00,
2013-09-13 05:28:00,63.6,63.0,29.61,ESE,107,0.0,0.0,98,0.00,,,0.35,vanprod-2.5,2013-09-13 09:28:00,
2013-09-13 05:33:00,63.5,62.9,29.62,SSE,157,1.0,1.0,98,0.00,,,0.35,vanprod-2.5,2013-09-13 09:33:00,
2013-09-13 05:38:00,63.2,62.6,29.61,SSE,163,0.0,1.0,98,0.00,,,0.35,vanprod-2.5,2013-09-13 09:38:00,
2013-09-13 05:43:00,63.1,62.5,29.61,SSE,163,0.0,0.0,98,0.00,,,0.35,vanprod-2.5,2013-09-13 09:43:00,
2013-09-13 05:48:00,63.1,62.5,29.61,SSE,163,0.0,0.0,98,0.01,,,0.36,vanprod-2.5,2013-09-13 09:48:00,
2013-09-13 05:53:00,63.3,62.7,29.61,SSE,163,0.0,0.0,98,0.01,,,0.36,vanprod-2.5,2013-09-13 09:53:00,
2013-09-13 05:58:00,63.4,62.8,29.61,SSE,162,0.0,0.0,98,0.01,,,0.36,vanprod-2.5,2013-09-13 09:58:00,
2013-09-13 06:03:00,63.4,62.8,29.61,SSE,162,0.0,0.0,98,0.02,,,0.37,vanprod-2.5,2013-09-13 10:03:00,
2013-09-13 06:08:00,63.5,62.9,29.62,SSE,163,0.0,0.0,98,0.02,,,0.37,vanprod-2.5,2013-09-13 10:08:00,
2013-09-13 06:13:00,63.3,62.7,29.62,South,174,0.0,1.0,98,0.03,,,0.38,vanprod-2.5,2013-09-13 10:13:00,
2013-09-13 06:18:00,63.3,62.7,29.62,South,174,0.0,0.0,98,0.03,,,0.38,vanprod-2.5,2013-09-13 10:18:00,
2013-09-13 06:23:00,63.3,62.7,29.62,South,174,0.0,0.0,98,0.04,,,0.39,vanprod-2.5,2013-09-13 10:23:00,
2013-09-13 06:28:00,63.3,62.7,29.62,South,174,0.0,0.0,98,0.05,,,0.40,vanprod-2.5,2013-09-13 10:28:00,
2013-09-13 06:33:00,63.4,62.8,29.61,South,174,0.0,0.0,98,0.05,,,0.40,vanprod-2.5,2013-09-13 10:33:00,
2013-09-13 06:38:00,63.4,62.8,29.62,South,172,0.0,0.0,98,0.05,,,0.40,vanprod-2.5,2013-09-13 10:38:00,
2013-09-13 06:43:00,63.5,62.9,29.62,SW,236,0.0,0.0,98,0.06,,,0.41,vanprod-2.5,2013-09-13 10:43:00,
2013-09-13 06:48:00,63.6,63.0,29.62,SSW,212,0.0,0.0,98,0.05,,,0.41,vanprod-2.5,2013-09-13 10:48:00,
2013-09-13 06:53:00,63.7,63.1,29.62,SSW,212,0.0,0.0,98,0.06,,,0.42,vanprod-2.5,2013-09-13 10:53:00,
2013-09-13 06:58:00,63.7,63.1,29.62,SSW,212,0.0,0.0,98,0.06,,,0.42,vanprod-2.5,2013-09-13 10:58:00,
2013-09-13 07:03:00,63.6,63.0,29.62,SSW,212,0.0,0.0,98,0.06,,,0.43,vanprod-2.5,2013-09-13 11:03:00,
2013-09-13 07:08:00,63.7,63.1,29.62,SSW,212,0.0,0.0,98,0.06,,,0.43,vanprod-2.5,2013-09-13 11:08:00,
2013-09-13 07:13:00,63.7,63.1,29.62,SSW,212,0.0,0.0,98,0.06,,,0.44,vanprod-2.5,2013-09-13 11:13:00,
2013-09-13 07:18:00,63.7,63.1,29.63,SSW,212,0.0,0.0,98,0.07,,,0.45,vanprod-2.5,2013-09-13 11:18:00,
2013-09-13 07:23:00,63.6,63.0,29.62,SSW,204,0.0,0.0,98,0.06,,,0.45,vanprod-2.5,2013-09-13 11:23:00,
2013-09-13 07:28:00,63.3,62.7,29.62,ENE,77,0.0,0.0,98,0.06,,,0.46,vanprod-2.5,2013-09-13 11:28:00,
2013-09-13 07:33:00,63.1,62.5,29.62,East,84,0.0,0.0,98,0.06,,,0.46,vanprod-2.5,2013-09-13 11:33:00,
2013-09-13 07:38:00,62.8,61.9,29.63,SE,133,0.0,0.0,97,0.07,,,0.47,vanprod-2.5,2013-09-13 11:38:00,
2013-09-13 07:43:00,62.5,61.6,29.63,ESE,115,0.0,0.0,97,0.07,,,0.48,vanprod-2.5,2013-09-13 11:43:00,
2013-09-13 07:48:00,62.4,61.5,29.63,SSE,154,0.0,0.0,97,0.07,,,0.48,vanprod-2.5,2013-09-13 11:48:00,
2013-09-13 07:53:00,62.5,61.6,29.62,SSE,158,0.0,0.0,97,0.07,,,0.49,vanprod-2.5,2013-09-13 11:53:00,
2013-09-13 07:58:00,62.5,61.9,29.62,SE,143,1.0,1.0,98,0.08,,,0.50,vanprod-2.5,2013-09-13 11:58:00,
2013-09-13 08:03:00,62.7,62.1,29.62,South,173,0.0,0.0,98,0.07,,,0.50,vanprod-2.5,2013-09-13 12:03:00,
2013-09-13 08:08:00,62.8,62.2,29.62,SSE,150,0.0,0.0,98,0.08,,,0.51,vanprod-2.5,2013-09-13 12:08:00,
2013-09-13 08:13:00,63.0,62.4,29.62,SSE,165,0.0,1.0,98,0.07,,,0.51,vanprod-2.5,2013-09-13 12:13:00,
2013-09-13 08:18:00,63.1,62.5,29.62,ESE,116,0.0,0.0,98,0.06,,,0.51,vanprod-2.5,2013-09-13 12:18:00,
2013-09-13 08:23:00,63.1,62.5,29.62,SSE,161,0.0,1.0,98,0.06,,,0.51,vanprod-2.5,2013-09-13 12:23:00,
2013-09-13 08:28:00,62.8,62.2,29.62,SE,135,1.0,1.0,98,0.05,,,0.51,vanprod-2.5,2013-09-13 12:28:00,
2013-09-13 08:33:00,62.6,62.0,29.62,ESE,119,0.0,0.0,98,0.05,,,0.51,vanprod-2.5,2013-09-13 12:33:00,
2013-09-13 08:38:00,62.7,62.1,29.61,ESE,120,0.0,0.0,98,0.04,,,0.51,vanprod-2.5,2013-09-13 12:38:00,
2013-09-13 08:43:00,62.8,62.2,29.62,SSE,165,0.0,1.0,98,0.03,,,0.51,vanprod-2.5,2013-09-13 12:43:00,
2013-09-13 08:48:00,62.7,62.1,29.62,NNW,329,0.0,0.0,98,0.03,,,0.51,vanprod-2.5,2013-09-13 12:48:00,
2013-09-13 08:53:00,62.3,61.4,29.62,SSW,199,1.0,2.0,97,0.02,,,0.51,vanprod-2.5,2013-09-13 12:53:00,
2013-09-13 08:58:00,62.1,61.2,29.62,SSE,148,0.0,0.0,97,0.02,,,0.52,vanprod-2.5,2013-09-13 12:58:00,
2013-09-13 09:03:00,62.2,61.3,29.63,SW,222,0.0,1.0,97,0.02,,,0.52,vanprod-2.5,2013-09-13 13:03:00,
2013-09-13 09:08:00,62.4,61.8,29.63,SSW,199,0.0,1.0,98,0.01,,,0.52,vanprod-2.5,2013-09-13 13:08:00,
2013-09-13 09:13:00,62.7,62.1,29.63,SSW,199,0.0,0.0,98,0.01,,,0.52,vanprod-2.5,2013-09-13 13:13:00,
2013-09-13 09:18:00,63.0,62.4,29.63,ESE,121,0.0,1.0,98,0.01,,,0.52,vanprod-2.5,2013-09-13 13:18:00,
2013-09-13 09:23:00,63.1,62.5,29.63,ESE,115,0.0,0.0,98,0.01,,,0.52,vanprod-2.5,2013-09-13 13:23:00,
2013-09-13 09:28:00,63.5,62.9,29.63,ESE,115,0.0,0.0,98,0.02,,,0.53,vanprod-2.5,2013-09-13 13:28:00,
2013-09-13 09:33:00,63.6,63.0,29.63,SSE,161,0.0,1.0,98,0.02,,,0.53,vanprod-2.5,2013-09-13 13:33:00,
2013-09-13 09:38:00,63.8,63.2,29.63,South,182,0.0,1.0,98,0.02,,,0.53,vanprod-2.5,2013-09-13 13:38:00,
2013-09-13 09:43:00,63.7,63.1,29.63,SE,127,0.0,0.0,98,0.03,,,0.54,vanprod-2.5,2013-09-13 13:43:00,
2013-09-13 09:48:00,63.5,62.9,29.62,East,85,1.0,2.0,98,0.03,,,0.54,vanprod-2.5,2013-09-13 13:48:00,
2013-09-13 09:53:00,63.4,62.8,29.62,East,84,0.0,1.0,98,0.03,,,0.54,vanprod-2.5,2013-09-13 13:53:00,
2013-09-13 09:58:00,63.8,63.2,29.62,East,79,0.0,1.0,98,0.03,,,0.55,vanprod-2.5,2013-09-13 13:58:00,
2013-09-13 10:03:00,63.8,63.2,29.62,East,98,0.0,0.0,98,0.03,,,0.55,vanprod-2.5,2013-09-13 14:03:00,
2013-09-13 10:08:00,63.9,63.3,29.62,East,81,0.0,0.0,98,0.03,,,0.55,vanprod-2.5,2013-09-13 14:08:00,
2013-09-13 10:13:00,64.0,63.4,29.62,South,183,1.0,2.0,98,0.03,,,0.55,vanprod-2.5,2013-09-13 14:13:00,
2013-09-13 10:18:00,64.2,63.6,29.62,West,277,1.0,3.0,98,0.03,,,0.55,vanprod-2.5,2013-09-13 14:18:00,
2013-09-13 10:23:00,63.9,63.3,29.62,ESE,108,0.0,0.0,98,0.04,,,0.56,vanprod-2.5,2013-09-13 14:23:00,
2013-09-13 10:28:00,64.1,63.5,29.62,East,91,1.0,2.0,98,0.03,,,0.56,vanprod-2.5,2013-09-13 14:28:00,
2013-09-13 10:33:00,64.0,63.4,29.61,East,88,1.0,2.0,98,0.03,,,0.56,vanprod-2.5,2013-09-13 14:33:00,
2013-09-13 10:38:00,63.2,62.3,29.62,SE,133,0.0,0.0,97,0.03,,,0.56,vanprod-2.5,2013-09-13 14:38:00,
2013-09-13 10:43:00,63.5,62.6,29.62,East,90,1.0,2.0,97,0.02,,,0.56,vanprod-2.5,2013-09-13 14:43:00,
2013-09-13 10:48:00,63.2,62.3,29.62,East,89,0.0,1.0,97,0.02,,,0.56,vanprod-2.5,2013-09-13 14:48:00,
2013-09-13 10:53:00,63.6,63.0,29.63,ESE,105,0.0,0.0,98,0.02,,,0.56,vanprod-2.5,2013-09-13 14:53:00,
2013-09-13 10:58:00,63.5,62.6,29.62,ESE,115,0.0,1.0,97,0.01,,,0.56,vanprod-2.5,2013-09-13 14:58:00,
2013-09-13 11:03:00,63.5,62.6,29.62,East,91,0.0,1.0,97,0.01,,,0.56,vanprod-2.5,2013-09-13 15:03:00,
2013-09-13 11:08:00,63.9,63.3,29.62,East,91,0.0,1.0,98,0.01,,,0.56,vanprod-2.5,2013-09-13 15:08:00,
2013-09-13 11:13:00,63.9,63.0,29.62,East,94,0.0,2.0,97,0.01,,,0.56,vanprod-2.5,2013-09-13 15:13:00,
2013-09-13 11:18:00,63.8,62.9,29.62,SSE,158,1.0,1.0,97,0.01,,,0.56,vanprod-2.5,2013-09-13 15:18:00,
2013-09-13 11:23:00,63.7,62.8,29.62,ESE,119,1.0,3.0,97,0.00,,,0.56,vanprod-2.5,2013-09-13 15:23:00,
2013-09-13 11:28:00,63.6,62.7,29.62,East,97,1.0,1.0,97,0.00,,,0.56,vanprod-2.5,2013-09-13 15:28:00,
2013-09-13 11:33:00,63.9,63.0,29.61,ENE,76,0.0,1.0,97,0.00,,,0.56,vanprod-2.5,2013-09-13 15:33:00,
2013-09-13 11:38:00,64.3,63.4,29.61,SW,231,0.0,1.0,97,0.00,,,0.56,vanprod-2.5,2013-09-13 15:38:00,
2013-09-13 11:43:00,66.2,65.6,29.61,South,184,0.0,1.0,98,0.00,,,0.56,vanprod-2.5,2013-09-13 15:43:00,
2013-09-13 11:48:00,66.2,65.6,29.61,East,83,0.0,1.0,98,0.00,,,0.56,vanprod-2.5,2013-09-13 15:48:00,
2013-09-13 11:53:00,67.0,66.4,29.61,East,91,1.0,2.0,98,0.00,,,0.56,vanprod-2.5,2013-09-13 15:53:00,
2013-09-13 11:58:00,67.1,66.5,29.61,East,88,1.0,3.0,98,0.00,,,0.56,vanprod-2.5,2013-09-13 15:58:00,
2013-09-13 12:03:00,66.6,65.7,29.61,East,94,0.0,1.0,97,0.00,,,0.56,vanprod-2.5,2013-09-13 16:03:00,
2013-09-13 12:08:00,66.6,65.7,29.60,ENE,78,1.0,0.0,97,0.00,,,0.56,vanprod-2.5,2013-09-13 16:08:00,
2013-09-13 12:13:00,66.1,64.9,29.60,West,260,0.0,2.0,96,0.00,,,0.56,vanprod-2.5,2013-09-13 16:13:00,
2013-09-13 12:18:00,65.9,64.7,29.60,SSE,153,1.0,2.0,96,0.00,,,0.56,vanprod-2.5,2013-09-13 16:18:00,
2013-09-13 12:23:00,65.9,64.7,29.60,SSE,160,3.0,4.0,96,0.00,,,0.56,vanprod-2.5,2013-09-13 16:23:00,
2013-09-13 12:28:00,65.9,64.7,29.60,SSE,162,1.0,3.0,96,0.00,,,0.56,vanprod-2.5,2013-09-13 16:28:00,
2013-09-13 12:33:00,65.7,64.5,29.60,ENE,66,1.0,4.0,96,0.00,,,0.56,vanprod-2.5,2013-09-13 16:33:00,
2013-09-13 12:38:00,65.2,63.7,29.60,South,187,2.0,4.0,95,0.00,,,0.56,vanprod-2.5,2013-09-13 16:38:00,
2013-09-13 12:43:00,65.2,64.0,29.60,South,175,1.0,3.0,96,0.00,,,0.56,vanprod-2.5,2013-09-13 16:43:00,
2013-09-13 12:48:00,65.4,64.2,29.59,SSW,193,2.0,4.0,96,0.00,,,0.56,vanprod-2.5,2013-09-13 16:48:00,
2013-09-13 12:53:00,65.7,64.5,29.59,SSE,157,3.0,5.0,96,0.00,,,0.56,vanprod-2.5,2013-09-13 16:53:00,
2013-09-13 12:58:00,66.6,65.7,29.59,North,9,0.0,2.0,97,0.00,,,0.56,vanprod-2.5,2013-09-13 16:58:00,
2013-09-13 13:03:00,67.0,65.8,29.60,East,99,1.0,1.0,96,0.00,,,0.56,vanprod-2.5,2013-09-13 17:03:00,
2013-09-13 13:08:00,66.8,65.0,29.60,SW,221,2.0,2.0,94,0.00,,,0.56,vanprod-2.5,2013-09-13 17:08:00,
2013-09-13 13:13:00,66.5,64.7,29.60,West,272,0.0,1.0,94,0.00,,,0.56,vanprod-2.5,2013-09-13 17:13:00,
2013-09-13 13:18:00,67.1,65.6,29.59,ESE,119,1.0,2.0,95,0.00,,,0.56,vanprod-2.5,2013-09-13 17:18:00,
2013-09-13 13:23:00,67.3,65.5,29.59,SE,127,1.0,3.0,94,0.00,,,0.56,vanprod-2.5,2013-09-13 17:23:00,
2013-09-13 13:28:00,67.5,65.4,29.59,SSE,154,1.0,3.0,93,0.00,,,0.56,vanprod-2.5,2013-09-13 17:28:00,
2013-09-13 13:33:00,67.2,64.5,29.59,East,93,3.0,5.0,91,0.00,,,0.56,vanprod-2.5,2013-09-13 17:33:00,
2013-09-13 13:38:00,67.3,64.9,29.59,ESE,103,2.0,2.0,92,0.00,,,0.56,vanprod-2.5,2013-09-13 17:38:00,
2013-09-13 13:43:00,67.1,64.1,29.59,East,90,4.0,6.0,90,0.00,,,0.56,vanprod-2.5,2013-09-13 17:43:00,
2013-09-13 13:48:00,66.7,64.6,29.58,ENE,78,1.0,4.0,93,0.00,,,0.56,vanprod-2.5,2013-09-13 17:48:00,
2013-09-13 13:53:00,67.3,64.6,29.59,ENE,69,2.0,3.0,91,0.00,,,0.56,vanprod-2.5,2013-09-13 17:53:00,
2013-09-13 13:58:00,67.0,64.3,29.58,ESE,108,0.0,3.0,91,0.00,,,0.56,vanprod-2.5,2013-09-13 17:58:00,
2013-09-13 14:03:00,66.7,64.0,29.58,East,93,2.0,2.0,91,0.00,,,0.56,vanprod-2.5,2013-09-13 18:03:00,
2013-09-13 14:08:00,66.5,63.8,29.58,East,89,1.0,2.0,91,0.00,,,0.56,vanprod-2.5,2013-09-13 18:08:00,
2013-09-13 14:13:00,66.4,63.7,29.58,ESE,109,2.0,3.0,91,0.00,,,0.56,vanprod-2.5,2013-09-13 18:13:00,
2013-09-13 14:18:00,66.2,63.8,29.58,North,9,1.0,2.0,92,0.00,,,0.56,vanprod-2.5,2013-09-13 18:18:00,
2013-09-13 14:23:00,66.0,63.3,29.58,East,89,2.0,3.0,91,0.00,,,0.56,vanprod-2.5,2013-09-13 18:23:00,
2013-09-13 14:28:00,65.4,63.0,29.58,East,85,2.0,2.0,92,0.00,,,0.56,vanprod-2.5,2013-09-13 18:28:00,
2013-09-13 14:33:00,65.2,63.4,29.58,ENE,68,0.0,1.0,94,0.00,,,0.56,vanprod-2.5,2013-09-13 18:33:00,
2013-09-13 14:38:00,65.4,63.6,29.58,SE,138,0.0,1.0,94,0.00,,,0.56,vanprod-2.5,2013-09-13 18:38:00,
2013-09-13 14:43:00,65.3,63.5,29.59,NW,306,0.0,1.0,94,0.00,,,0.56,vanprod-2.5,2013-09-13 18:43:00,
2013-09-13 14:48:00,65.0,63.2,29.59,NW,323,0.0,0.0,94,0.00,,,0.56,vanprod-2.5,2013-09-13 18:48:00,
2013-09-13 14:53:00,64.9,63.4,29.59,NW,309,0.0,0.0,95,0.02,,,0.58,vanprod-2.5,2013-09-13 18:53:00,
2013-09-13 14:58:00,64.9,63.4,29.59,West,274,1.0,2.0,95,0.03,,,0.59,vanprod-2.5,2013-09-13 18:58:00,
2013-09-13 15:03:00,64.7,63.2,29.59,South,183,2.0,3.0,95,0.04,,,0.60,vanprod-2.5,2013-09-13 19:03:00,
2013-09-13 15:08:00,64.4,62.9,29.59,SSE,147,0.0,1.0,95,0.06,,,0.62,vanprod-2.5,2013-09-13 19:08:00,
2013-09-13 15:13:00,64.4,63.2,29.60,SE,145,1.0,1.0,96,0.12,,,0.68,vanprod-2.5,2013-09-13 19:13:00,
2013-09-13 15:18:00,64.6,63.4,29.60,ESE,109,0.0,0.0,96,0.17,,,0.73,vanprod-2.5,2013-09-13 19:18:00,
2013-09-13 15:23:00,64.6,63.4,29.59,ESE,109,0.0,1.0,96,0.18,,,0.74,vanprod-2.5,2013-09-13 19:23:00,
2013-09-13 15:28:00,64.9,63.7,29.59,NNE,19,0.0,0.0,96,0.19,,,0.75,vanprod-2.5,2013-09-13 19:28:00,
2013-09-13 15:33:00,64.7,63.5,29.60,NE,40,2.0,4.0,96,0.20,,,0.76,vanprod-2.5,2013-09-13 19:33:00,
2013-09-13 15:38:00,64.7,63.5,29.60,ENE,77,1.0,2.0,96,0.21,,,0.77,vanprod-2.5,2013-09-13 19:38:00,
2013-09-13 15:43:00,64.8,63.6,29.60,ENE,63,2.0,2.0,96,0.22,,,0.78,vanprod-2.5,2013-09-13 19:43:00,
2013-09-13 15:48:00,64.8,63.6,29.60,North,9,0.0,1.0,96,0.23,,,0.79,vanprod-2.5,2013-09-13 19:48:00,
2013-09-13 15:53:00,64.9,63.7,29.60,NNW,346,1.0,2.0,96,0.21,,,0.79,vanprod-2.5,2013-09-13 19:53:00,
2013-09-13 15:58:00,64.7,63.5,29.60,North,357,2.0,3.0,96,0.20,,,0.79,vanprod-2.5,2013-09-13 19:58:00,
2013-09-13 16:03:00,64.5,63.3,29.60,NE,55,3.0,3.0,96,0.19,,,0.79,vanprod-2.5,2013-09-13 20:03:00,
2013-09-13 16:08:00,64.2,63.0,29.60,NE,45,2.0,4.0,96,0.18,,,0.80,vanprod-2.5,2013-09-13 20:08:00,
2013-09-13 16:13:00,64.1,62.9,29.60,NNE,32,2.0,4.0,96,0.12,,,0.80,vanprod-2.5,2013-09-13 20:13:00,
2013-09-13 16:18:00,64.2,63.0,29.60,NE,50,1.0,2.0,96,0.07,,,0.80,vanprod-2.5,2013-09-13 20:18:00,
2013-09-13 16:23:00,64.1,62.9,29.60,NE,42,1.0,2.0,96,0.07,,,0.81,vanprod-2.5,2013-09-13 20:23:00,
2013-09-13 16:28:00,64.1,62.9,29.60,NNE,31,1.0,2.0,96,0.06,,,0.81,vanprod-2.5,2013-09-13 20:28:00,
2013-09-13 16:33:00,64.1,62.9,29.60,NNW,336,0.0,0.0,96,0.05,,,0.81,vanprod-2.5,2013-09-13 20:33:00,
2013-09-13 16:38:00,64.0,62.8,29.60,NE,38,1.0,2.0,96,0.05,,,0.82,vanprod-2.5,2013-09-13 20:38:00,
2013-09-13 16:43:00,64.0,62.8,29.60,NW,315,1.0,2.0,96,0.04,,,0.82,vanprod-2.5,2013-09-13 20:43:00,
2013-09-13 16:48:00,63.9,62.7,29.60,NNW,345,1.0,1.0,96,0.03,,,0.82,vanprod-2.5,2013-09-13 20:48:00,
2013-09-13 16:53:00,63.8,62.6,29.61,North,3,0.0,1.0,96,0.04,,,0.83,vanprod-2.5,2013-09-13 20:53:00,
2013-09-13 16:58:00,63.7,62.5,29.61,NNE,13,3.0,7.0,96,0.04,,,0.83,vanprod-2.5,2013-09-13 20:58:00,
2013-09-13 17:03:00,63.6,62.4,29.61,NNE,16,2.0,2.0,96,0.04,,,0.83,vanprod-2.5,2013-09-13 21:03:00,
2013-09-13 17:08:00,63.5,62.3,29.60,NNE,28,4.0,7.0,96,0.03,,,0.83,vanprod-2.5,2013-09-13 21:08:00,
2013-09-13 17:13:00,63.5,62.3,29.60,NNE,31,2.0,4.0,96,0.03,,,0.83,vanprod-2.5,2013-09-13 21:13:00,
2013-09-13 17:18:00,63.4,62.2,29.61,NE,39,1.0,2.0,96,0.03,,,0.83,vanprod-2.5,2013-09-13 21:18:00,
2013-09-13 17:23:00,63.3,62.1,29.61,NE,43,3.0,4.0,96,0.02,,,0.83,vanprod-2.5,2013-09-13 21:23:00,
2013-09-13 17:28:00,63.2,62.0,29.61,NE,34,2.0,3.0,96,0.02,,,0.83,vanprod-2.5,2013-09-13 21:28:00,
2013-09-13 17:33:00,63.2,62.0,29.61,North,6,1.0,2.0,96,0.02,,,0.83,vanprod-2.5,2013-09-13 21:33:00,
2013-09-13 17:38:00,63.1,61.9,29.61,NW,317,1.0,3.0,96,0.01,,,0.83,vanprod-2.5,2013-09-13 21:38:00,
2013-09-13 17:43:00,63.0,61.8,29.61,NW,322,1.0,3.0,96,0.01,,,0.83,vanprod-2.5,2013-09-13 21:43:00,
2013-09-13 17:48:00,63.0,61.8,29.62,North,3,2.0,5.0,96,0.01,,,0.83,vanprod-2.5,2013-09-13 21:48:00,
2013-09-13 17:53:00,63.0,61.8,29.62,NW,319,1.0,3.0,96,0.02,,,0.85,vanprod-2.5,2013-09-13 21:53:00,
2013-09-13 17:58:00,63.0,61.8,29.63,NW,326,1.0,3.0,96,0.06,,,0.89,vanprod-2.5,2013-09-13 21:58:00,
2013-09-13 18:03:00,63.0,61.8,29.63,NNW,334,1.0,2.0,96,0.10,,,0.93,vanprod-2.5,2013-09-13 22:03:00,
2013-09-13 18:08:00,63.0,61.8,29.63,NNW,347,3.0,6.0,96,0.13,,,0.96,vanprod-2.5,2013-09-13 22:08:00,
2013-09-13 18:13:00,62.7,61.5,29.63,NW,325,3.0,4.0,96,0.17,,,1.00,vanprod-2.5,2013-09-13 22:13:00,
2013-09-13 18:18:00,62.5,61.3,29.63,NE,53,2.0,4.0,96,0.20,,,1.03,vanprod-2.5,2013-09-13 22:18:00,
2013-09-13 18:23:00,62.3,61.1,29.63,NNW,335,3.0,5.0,96,0.22,,,1.05,vanprod-2.5,2013-09-13 22:23:00,
2013-09-13 18:28:00,62.1,60.9,29.63,NNE,24,3.0,6.0,96,0.27,,,1.10,vanprod-2.5,2013-09-13 22:28:00,
2013-09-13 18:33:00,61.8,60.7,29.63,NNW,339,3.0,5.0,96,0.30,,,1.13,vanprod-2.5,2013-09-13 22:33:00,
2013-09-13 18:38:00,61.7,60.6,29.63,NNW,344,3.0,4.0,96,0.32,,,1.15,vanprod-2.5,2013-09-13 22:38:00,
2013-09-13 18:43:00,61.6,60.5,29.63,NNW,337,4.0,7.0,96,0.32,,,1.15,vanprod-2.5,2013-09-13 22:43:00,
2013-09-13 18:48:00,61.4,60.3,29.62,NNW,339,2.0,3.0,96,0.33,,,1.16,vanprod-2.5,2013-09-13 22:48:00,
2013-09-13 18:53:00,61.3,60.2,29.62,North,350,4.0,7.0,96,0.33,,,1.17,vanprod-2.5,2013-09-13 22:53:00,
2013-09-13 18:58:00,61.1,60.0,29.62,North,352,4.0,5.0,96,0.28,,,1.17,vanprod-2.5,2013-09-13 22:58:00,
2013-09-13 19:03:00,60.9,59.8,29.62,NNE,26,4.0,8.0,96,0.24,,,1.17,vanprod-2.5,2013-09-13 23:03:00,
2013-09-13 19:08:00,60.9,59.8,29.62,NNE,26,3.0,6.0,96,0.21,,,1.17,vanprod-2.5,2013-09-13 23:08:00,
2013-09-13 19:13:00,60.7,59.6,29.62,NNE,26,4.0,6.0,96,0.18,,,1.18,vanprod-2.5,2013-09-13 23:13:00,
2013-09-13 19:18:00,60.7,59.6,29.63,NNE,13,2.0,2.0,96,0.15,,,1.18,vanprod-2.5,2013-09-13 23:18:00,
2013-09-13 19:23:00,60.6,59.5,29.63,North,360,3.0,3.0,96,0.13,,,1.18,vanprod-2.5,2013-09-13 23:23:00,
2013-09-13 19:28:00,60.5,59.4,29.64,North,354,2.0,7.0,96,0.08,,,1.18,vanprod-2.5,2013-09-13 23:28:00,
2013-09-13 19:33:00,60.5,59.4,29.65,NNW,344,2.0,4.0,96,0.05,,,1.18,vanprod-2.5,2013-09-13 23:33:00,
2013-09-13 19:38:00,60.5,59.4,29.65,NW,322,1.0,3.0,96,0.03,,,1.18,vanprod-2.5,2013-09-13 23:38:00,
2013-09-13 19:43:00,60.4,59.3,29.65,NW,311,2.0,4.0,96,0.03,,,1.18,vanprod-2.5,2013-09-13 23:43:00,
2013-09-13 19:48:00,60.3,59.2,29.65,NNW,334,2.0,3.0,96,0.02,,,1.18,vanprod-2.5,2013-09-13 23:48:00,
2013-09-13 19:53:00,60.2,59.1,29.65,NW,322,2.0,2.0,96,0.01,,,1.18,vanprod-2.5,2013-09-13 23:53:00,
2013-09-13 19:58:00,60.1,59.0,29.66,WNW,287,1.0,2.0,96,0.01,,,1.18,vanprod-2.5,2013-09-13 23:58:00,
2013-09-13 20:03:00,60.1,59.0,29.66,NW,319,1.0,2.0,96,0.01,,,1.18,vanprod-2.5,2013-09-14 00:03:00,
2013-09-13 20:08:00,60.1,59.0,29.66,WNW,302,1.0,3.0,96,0.01,,,1.18,vanprod-2.5,2013-09-14 00:08:00,
2013-09-13 20:13:00,60.0,58.9,29.66,NW,326,1.0,3.0,96,0.00,,,1.18,vanprod-2.5,2013-09-14 00:13:00,
2013-09-13 20:18:00,60.0,58.9,29.67,NW,315,1.0,1.0,96,0.00,,,1.18,vanprod-2.5,2013-09-14 00:18:00,
2013-09-13 20:23:00,60.0,58.9,29.67,NNW,332,0.0,3.0,96,0.00,,,1.18,vanprod-2.5,2013-09-14 00:23:00,
2013-09-13 20:28:00,59.9,58.8,29.68,NW,309,1.0,2.0,96,0.00,,,1.18,vanprod-2.5,2013-09-14 00:28:00,
2013-09-13 20:33:00,59.9,58.8,29.68,NW,319,1.0,1.0,96,0.00,,,1.18,vanprod-2.5,2013-09-14 00:33:00,
2013-09-13 20:38:00,59.9,58.8,29.68,NNW,332,1.0,2.0,96,0.00,,,1.18,vanprod-2.5,2013-09-14 00:38:00,
2013-09-13 20:43:00,59.9,58.8,29.68,NNE,15,0.0,1.0,96,0.00,,,1.18,vanprod-2.5,2013-09-14 00:43:00,
2013-09-13 20:48:00,59.9,58.8,29.68,North,355,1.0,2.0,96,0.00,,,1.18,vanprod-2.5,2013-09-14 00:48:00,
2013-09-13 20:53:00,59.9,58.8,29.69,NW,311,1.0,2.0,96,0.00,,,1.18,vanprod-2.5,2013-09-14 00:53:00,
2013-09-13 20:58:00,59.9,58.8,29.70,WNW,292,1.0,1.0,96,0.00,,,1.18,vanprod-2.5,2013-09-14 00:58:00,
2013-09-13 21:03:00,59.9,58.8,29.70,NNW,333,2.0,4.0,96,0.00,,,1.18,vanprod-2.5,2013-09-14 01:03:00,
2013-09-13 21:08:00,60.0,58.9,29.70,NE,38,1.0,2.0,96,0.00,,,1.18,vanprod-2.5,2013-09-14 01:08:00,
2013-09-13 21:13:00,59.9,58.8,29.70,North,356,2.0,5.0,96,0.00,,,1.18,vanprod-2.5,2013-09-14 01:13:00,
2013-09-13 21:18:00,59.8,58.7,29.70,North,351,2.0,3.0,96,0.00,,,1.18,vanprod-2.5,2013-09-14 01:18:00,
2013-09-13 21:23:00,59.8,58.7,29.70,North,354,2.0,4.0,96,0.00,,,1.18,vanprod-2.5,2013-09-14 01:23:00,
2013-09-13 21:28:00,59.7,58.6,29.70,NW,322,2.0,3.0,96,0.00,,,1.18,vanprod-2.5,2013-09-14 01:28:00,
2013-09-13 21:33:00,59.7,58.6,29.70,NW,324,1.0,2.0,96,0.00,,,1.18,vanprod-2.5,2013-09-14 01:33:00,
2013-09-13 21:38:00,59.6,58.5,29.70,NNW,346,2.0,5.0,96,0.00,,,1.18,vanprod-2.5,2013-09-14 01:38:00,
2013-09-13 21:43:00,59.5,58.4,29.70,NNW,338,2.0,7.0,96,0.00,,,1.18,vanprod-2.5,2013-09-14 01:43:00,
2013-09-13 21:48:00,59.4,58.3,29.70,NNW,345,3.0,4.0,96,0.00,,,1.18,vanprod-2.5,2013-09-14 01:48:00,
2013-09-13 21:53:00,59.3,58.2,29.70,NW,320,2.0,5.0,96,0.00,,,1.18,vanprod-2.5,2013-09-14 01:53:00,
2013-09-13 21:58:00,59.2,58.1,29.70,North,359,3.0,7.0,96,0.00,,,1.18,vanprod-2.5,2013-09-14 01:58:00,
2013-09-13 22:03:00,59.1,57.7,29.70,NNW,335,2.0,4.0,95,0.00,,,1.18,vanprod-2.5,2013-09-14 02:03:00,
2013-09-13 22:08:00,58.9,57.5,29.70,North,349,3.0,7.0,95,0.00,,,1.18,vanprod-2.5,2013-09-14 02:08:00,
2013-09-13 22:13:00,58.7,57.3,29.71,North,1,2.0,4.0,95,0.00,,,1.18,vanprod-2.5,2013-09-14 02:13:00,
2013-09-13 22:18:00,58.6,57.2,29.71,NNW,340,3.0,4.0,95,0.00,,,1.18,vanprod-2.5,2013-09-14 02:18:00,
2013-09-13 22:23:00,58.6,56.9,29.71,NNW,329,2.0,6.0,94,0.00,,,1.18,vanprod-2.5,2013-09-14 02:23:00,
2013-09-13 22:28:00,58.4,57.0,29.71,NNW,331,2.0,2.0,95,0.00,,,1.18,vanprod-2.5,2013-09-14 02:28:00,
2013-09-13 22:33:00,58.4,57.0,29.71,NNE,13,2.0,5.0,95,0.00,,,1.18,vanprod-2.5,2013-09-14 02:33:00,
2013-09-13 22:38:00,58.3,56.9,29.71,North,349,1.0,2.0,95,0.00,,,1.18,vanprod-2.5,2013-09-14 02:38:00,
2013-09-13 22:43:00,58.2,56.8,29.71,North,355,1.0,1.0,95,0.00,,,1.18,vanprod-2.5,2013-09-14 02:43:00,
2013-09-13 22:48:00,58.2,56.8,29.71,NW,310,2.0,4.0,95,0.00,,,1.18,vanprod-2.5,2013-09-14 02:48:00,
2013-09-13 22:53:00,58.2,56.8,29.71,SW,234,1.0,5.0,95,0.00,,,1.18,vanprod-2.5,2013-09-14 02:53:00,
2013-09-13 22:58:00,58.2,56.8,29.72,NNW,327,3.0,4.0,95,0.00,,,1.18,vanprod-2.5,2013-09-14 02:58:00,
2013-09-13 23:03:00,58.2,56.8,29.72,NW,308,3.0,5.0,95,0.00,,,1.18,vanprod-2.5,2013-09-14 03:03:00,
2013-09-13 23:08:00,58.1,56.7,29.72,North,353,1.0,2.0,95,0.00,,,1.18,vanprod-2.5,2013-09-14 03:08:00,
2013-09-13 23:13:00,58.0,56.6,29.71,NNW,340,3.0,5.0,95,0.00,,,1.18,vanprod-2.5,2013-09-14 03:13:00,
2013-09-13 23:18:00,57.8,56.4,29.71,NNW,328,2.0,3.0,95,0.00,,,1.18,vanprod-2.5,2013-09-14 03:18:00,
2013-09-13 23:23:00,57.7,56.3,29.71,NNW,338,2.0,4.0,95,0.00,,,1.18,vanprod-2.5,2013-09-14 03:23:00,
2013-09-13 23:28:00,57.6,56.2,29.71,NW,314,2.0,5.0,95,0.00,,,1.18,vanprod-2.5,2013-09-14 03:28:00,
2013-09-13 23:33:00,57.5,56.1,29.71,NNW,341,2.0,5.0,95,0.00,,,1.18,vanprod-2.5,2013-09-14 03:33:00,
2013-09-13 23:38:00,57.5,56.1,29.71,NNW,329,3.0,5.0,95,0.00,,,1.18,vanprod-2.5,2013-09-14 03:38:00,
2013-09-13 23:43:00,57.5,56.1,29.71,NW,307,2.0,5.0,95,0.00,,,1.18,vanprod-2.5,2013-09-14 03:43:00,
2013-09-13 23:48:00,57.5,56.1,29.71,NW,323,2.0,4.0,95,0.00,,,1.18,vanprod-2.5,2013-09-14 03:48:00,
2013-09-13 23:53:00,57.5,56.1,29.71,NNW,332,3.0,6.0,95,0.00,,,1.18,vanprod-2.5,2013-09-14 03:53:00,
2013-09-13 23:58:00,57.6,55.9,29.71,NW,321,3.0,4.0,94,0.00,,,1.18,vanprod-2.5,2013-09-14 03:58:00,